Time,TemperatureF,DewpointF,PressureIn,WindDirection,WindDirectionDegrees,WindSpeedMPH,WindSpeedGustMPH,Humidity,HourlyPrecipIn,Conditions,Clouds,dailyrainin,SolarRadiationWatts/m^2,SoftwareType,DateUTC
2013-02-02 00:01:00,25.3,13.8,30.06,West,270,5.9,7.4,61,0.00,CLR,SCT,0.00,0.0,WeatherDisplay:10.37,2013-02-02 06:01:00,
2013-02-02 00:06:00,25.2,14.0,30.06,WNW,292,3.6,3.8,62,0.00,CLR,SCT,0.00,0.0,WeatherDisplay:10.37,2013-02-02 06:06:00,
2013-02-02 00:12:00,25.2,14.3,30.03,WNW,292,4.0,5.8,63,0.00,CLR,SCT,0.00,0.0,WeatherDisplay:10.37,2013-02-02 06:12:00,
2013-02-02 00:17:00,25.2,14.7,30.03,WNW,292,3.3,5.8,64,0.00,CLR,SCT,0.00,0.0,WeatherDisplay:10.37,2013-02-02 06:17:00,
2013-02-02 00:22:00,25.3,15.6,30.03,WSW,248,2.6,3.5,66,0.00,CLR,SCT,0.00,0.0,WeatherDisplay:10.37,2013-02-02 06:22:00,
2013-02-02 00:27:00,25.3,15.9,30.06,WNW,292,3.1,4.6,67,0.00,CLR,SCT,0.00,0.0,WeatherDisplay:10.37,2013-02-02 06:27:00,
2013-02-02 00:32:00,25.3,15.9,30.06,WSW,248,3.8,4.6,67,0.00,CLR,SCT,0.00,0.0,WeatherDisplay:10.37,2013-02-02 06:32:00,
2013-02-02 00:37:00,25.3,16.2,30.06,WNW,292,2.4,4.6,68,0.00,CLR,SCT,0.00,0.0,WeatherDisplay:10.37,2013-02-02 06:37:00,
2013-02-02 00:42:00,25.5,16.4,30.06,West,270,3.8,4.6,68,0.00,CLR,SCT,0.00,0.0,WeatherDisplay:10.37,2013-02-02 06:42:00,
2013-02-02 00:47:00,25.5,16.8,30.06,West,270,2.4,4.6,69,0.00,CLR,SCT,0.00,0.0,WeatherDisplay:10.37,2013-02-02 06:47:00,
2013-02-02 00:52:00,25.5,16.8,30.06,West,270,2.9,3.5,69,0.00,CLR,SCT,0.00,0.0,WeatherDisplay:10.37,2013-02-02 06:52:00,
2013-02-02 00:57:00,25.3,16.9,30.06,WNW,292,2.0,3.5,70,0.00,CLR,SCT,0.00,0.0,WeatherDisplay:10.37,2013-02-02 06:57:00,
2013-02-02 01:02:00,25.5,17.4,30.06,West,270,3.6,5.8,71,0.00,CLR,SCT,0.00,0.0,WeatherDisplay:10.37,2013-02-02 07:02:00,
2013-02-02 01:07:00,25.5,17.4,30.06,WNW,292,2.4,3.5,71,0.00,CLR,SCT,0.00,0.0,WeatherDisplay:10.37,2013-02-02 07:07:00,
2013-02-02 01:13:00,25.7,17.9,30.03,WSW,248,3.8,4.6,72,0.00,CLR,SCT,0.00,0.0,WeatherDisplay:10.37,2013-02-02 07:13:00,
2013-02-02 01:18:00,25.9,18.7,30.03,WNW,292,2.4,3.5,74,0.00,CLR,SCT,0.00,0.0,WeatherDisplay:10.37,2013-02-02 07:18:00,
2013-02-02 01:23:00,25.7,18.2,30.06,WSW,248,2.9,3.5,73,0.00,CLR,SCT,0.00,0.0,WeatherDisplay:10.37,2013-02-02 07:23:00,
2013-02-02 01:28:00,25.3,17.6,30.06,West,270,2.4,3.5,72,0.00,CLR,SCT,0.00,0.0,WeatherDisplay:10.37,2013-02-02 07:28:00,
2013-02-02 01:33:00,25.3,17.9,30.06,WNW,292,2.6,3.5,73,0.00,CLR,SCT,0.00,0.0,WeatherDisplay:10.37,2013-02-02 07:33:00,
2013-02-02 01:38:00,25.5,18.7,30.06,WSW,248,2.0,3.5,75,0.00,CLR,SCT,0.00,0.0,WeatherDisplay:10.37,2013-02-02 07:38:00,
2013-02-02 01:43:00,25.7,19.5,30.06,NNW,338,1.6,2.3,77,0.00,CLR,SCT,0.00,0.0,WeatherDisplay:10.37,2013-02-02 07:43:00,
2013-02-02 01:48:00,26.1,20.4,30.06,North,0,2.6,3.5,79,0.00,CLR,SCT,0.00,0.0,WeatherDisplay:10.37,2013-02-02 07:48:00,
2013-02-02 01:53:00,26.1,20.1,30.06,NW,315,0.9,3.5,78,0.00,CLR,SCT,0.00,0.0,WeatherDisplay:10.37,2013-02-02 07:53:00,
2013-02-02 01:58:00,26.1,19.5,30.06,WNW,292,1.1,2.3,76,0.00,CLR,SCT,0.00,0.0,WeatherDisplay:10.37,2013-02-02 07:58:00,
2013-02-02 02:05:00,25.9,19.0,30.06,NNW,338,1.4,1.6,75,0.00,CLR,SCT,0.00,0.0,WeatherDisplay:10.37,2013-02-02 08:05:00,
2013-02-02 02:10:00,25.7,18.9,30.06,North,0,0.0,0.0,75,0.00,CLR,SCT,0.00,0.0,WeatherDisplay:10.37,2013-02-02 08:10:00,
2013-02-02 02:15:00,25.3,18.2,30.06,WNW,292,1.6,2.6,74,0.00,CLR,SCT,0.00,0.0,WeatherDisplay:10.37,2013-02-02 08:15:00,
2013-02-02 02:20:00,25.3,18.5,30.06,NNW,338,0.9,1.1,75,0.00,CLR,SCT,0.00,0.0,WeatherDisplay:10.37,2013-02-02 08:20:00,
2013-02-02 02:25:00,25.3,18.8,30.09,NNW,338,0.0,0.0,76,0.00,CLR,SCT,0.00,0.0,WeatherDisplay:10.37,2013-02-02 08:25:00,
2013-02-02 02:30:00,25.3,19.1,30.09,NW,315,1.6,2.3,77,0.00,CLR,SCT,0.00,0.0,WeatherDisplay:10.37,2013-02-02 08:30:00,
2013-02-02 02:35:00,25.5,19.6,30.09,NNW,338,0.0,1.6,78,0.00,CLR,SCT,0.00,0.0,WeatherDisplay:10.37,2013-02-02 08:35:00,
2013-02-02 02:40:00,25.5,19.6,30.09,NNW,338,0.0,2.6,78,0.00,CLR,SCT,0.00,0.0,WeatherDisplay:10.37,2013-02-02 08:40:00,
2013-02-02 02:46:00,25.7,20.1,30.09,West,270,2.0,2.3,79,0.00,CLR,SCT,0.00,0.0,WeatherDisplay:10.37,2013-02-02 08:46:00,
2013-02-02 02:51:00,25.9,20.3,30.09,West,270,2.6,3.5,79,0.00,CLR,SCT,0.00,0.0,WeatherDisplay:10.37,2013-02-02 08:51:00,
2013-02-02 02:56:00,25.9,20.0,30.12,West,270,2.4,3.5,78,0.00,CLR,SCT,0.00,0.0,WeatherDisplay:10.37,2013-02-02 08:56:00,
2013-02-02 03:01:00,26.1,20.1,30.12,NNW,338,1.4,2.3,78,0.00,CLR,SCT,0.00,0.0,WeatherDisplay:10.37,2013-02-02 09:01:00,
2013-02-02 03:07:00,26.1,20.1,30.12,NNW,338,1.4,3.5,78,0.00,CLR,SCT,0.00,0.0,WeatherDisplay:10.37,2013-02-02 09:07:00,
2013-02-02 03:12:00,26.1,19.8,30.12,NW,315,2.0,3.5,77,0.00,CLR,SCT,0.00,0.0,WeatherDisplay:10.37,2013-02-02 09:12:00,
2013-02-02 03:17:00,26.2,20.0,30.12,NNW,338,2.2,2.4,77,0.00,CLR,SCT,0.00,0.0,WeatherDisplay:10.37,2013-02-02 09:17:00,
2013-02-02 03:22:00,26.2,20.0,30.12,West,270,2.0,2.3,77,0.00,CLR,SCT,0.00,0.0,WeatherDisplay:10.37,2013-02-02 09:22:00,
2013-02-02 03:27:00,26.2,19.7,30.12,WSW,248,1.6,2.4,76,0.00,CLR,SCT,0.00,0.0,WeatherDisplay:10.37,2013-02-02 09:27:00,
2013-02-02 03:32:00,26.2,19.7,30.12,NNW,338,1.6,2.3,76,0.00,CLR,SCT,0.00,0.0,WeatherDisplay:10.37,2013-02-02 09:32:00,
2013-02-02 03:37:00,26.2,19.7,30.12,NW,315,2.2,3.5,76,0.00,CLR,SCT,0.00,0.0,WeatherDisplay:10.37,2013-02-02 09:37:00,
2013-02-02 03:42:00,26.2,19.4,30.12,WNW,292,0.9,1.1,75,0.00,CLR,SCT,0.00,0.0,WeatherDisplay:10.37,2013-02-02 09:42:00,
2013-02-02 03:47:00,26.2,19.4,30.12,NNW,338,1.6,2.3,75,0.00,CLR,SCT,0.00,0.0,WeatherDisplay:10.37,2013-02-02 09:47:00,
2013-02-02 03:53:00,26.2,19.4,30.12,WNW,292,0.0,0.0,75,0.00,CLR,SCT,0.00,0.0,WeatherDisplay:10.37,2013-02-02 09:53:00,
2013-02-02 03:58:00,26.2,19.4,30.12,NNW,338,0.0,0.0,75,0.00,CLR,SCT,0.00,0.0,WeatherDisplay:10.37,2013-02-02 09:58:00,
2013-02-02 04:03:00,26.2,19.4,30.12,North,0,0.9,1.1,75,0.00,CLR,SCT,0.00,0.0,WeatherDisplay:10.37,2013-02-02 10:03:00,
2013-02-02 04:08:00,26.1,19.2,30.12,North,0,1.6,2.4,75,0.00,CLR,SCT,0.00,0.0,WeatherDisplay:10.37,2013-02-02 10:08:00,
2013-02-02 04:13:00,26.1,18.9,30.12,NNE,22,0.9,3.1,74,0.00,CLR,SCT,0.00,0.0,WeatherDisplay:10.37,2013-02-02 10:13:00,
2013-02-02 04:18:00,26.2,18.8,30.12,NNE,22,1.6,2.9,73,0.00,CLR,SCT,0.00,0.0,WeatherDisplay:10.37,2013-02-02 10:18:00,
2013-02-02 04:23:00,26.2,18.8,30.12,NNE,22,2.9,3.5,73,0.00,CLR,SCT,0.00,0.0,WeatherDisplay:10.37,2013-02-02 10:23:00,
2013-02-02 04:28:00,26.4,18.6,30.12,North,0,2.9,3.8,72,0.00,CLR,SCT,0.00,0.0,WeatherDisplay:10.37,2013-02-02 10:28:00,
2013-02-02 04:33:00,26.6,18.1,30.12,NNW,338,2.9,4.6,70,0.00,CLR,SCT,0.00,0.0,WeatherDisplay:10.37,2013-02-02 10:33:00,
2013-02-02 04:38:00,26.6,18.1,30.12,WNW,292,1.1,4.0,70,0.00,CLR,SCT,0.00,0.0,WeatherDisplay:10.37,2013-02-02 10:38:00,
2013-02-02 04:44:00,26.6,17.8,30.12,North,0,1.4,3.5,69,0.00,CLR,SCT,0.00,0.0,WeatherDisplay:10.37,2013-02-02 10:44:00,
2013-02-02 04:49:00,26.6,17.8,30.12,SSE,158,0.9,2.3,69,0.00,CLR,SCT,0.00,0.0,WeatherDisplay:10.37,2013-02-02 10:49:00,
2013-02-02 04:54:00,26.6,17.8,30.12,North,0,2.2,3.5,69,0.00,CLR,SCT,0.00,0.0,WeatherDisplay:10.37,2013-02-02 10:54:00,
2013-02-02 04:59:00,26.6,17.5,30.12,NNE,22,2.2,3.5,68,0.00,CLR,SCT,0.00,0.0,WeatherDisplay:10.37,2013-02-02 10:59:00,
2013-02-02 05:04:00,26.6,17.5,30.12,WNW,292,3.6,4.6,68,0.00,CLR,SCT,0.00,0.0,WeatherDisplay:10.37,2013-02-02 11:04:00,
2013-02-02 05:09:00,26.6,17.1,30.12,ENE,68,1.6,4.6,67,0.00,CLR,SCT,0.00,0.0,WeatherDisplay:10.37,2013-02-02 11:09:00,
2013-02-02 05:14:00,26.6,17.1,30.12,WSW,248,1.1,1.1,67,0.00,CLR,SCT,0.00,0.0,WeatherDisplay:10.37,2013-02-02 11:14:00,
2013-02-02 05:19:00,26.6,17.1,30.12,NNW,338,1.1,2.3,67,0.00,CLR,SCT,0.00,0.0,WeatherDisplay:10.37,2013-02-02 11:19:00,
2013-02-02 05:24:00,26.6,17.1,30.12,WSW,248,1.6,3.5,67,0.00,CLR,SCT,0.00,0.0,WeatherDisplay:10.37,2013-02-02 11:24:00,
2013-02-02 05:29:00,26.6,16.8,30.12,North,0,2.4,3.6,66,0.00,CLR,SCT,0.00,0.0,WeatherDisplay:10.37,2013-02-02 11:29:00,
2013-02-02 05:34:00,26.6,16.8,30.12,North,0,1.6,1.6,66,0.00,CLR,SCT,0.00,0.0,WeatherDisplay:10.37,2013-02-02 11:34:00,
2013-02-02 05:39:00,26.6,16.8,30.12,SSE,158,2.0,3.5,66,0.00,CLR,SCT,0.00,0.0,WeatherDisplay:10.37,2013-02-02 11:39:00,
2013-02-02 05:44:00,26.6,17.1,30.12,North,0,1.4,1.4,67,0.00,CLR,SCT,0.00,0.0,WeatherDisplay:10.37,2013-02-02 11:44:00,
2013-02-02 05:49:00,26.4,16.6,30.12,SSW,202,2.0,3.5,66,0.00,CLR,SCT,0.00,0.0,WeatherDisplay:10.37,2013-02-02 11:49:00,
2013-02-02 05:54:00,26.4,16.2,30.09,NW,315,3.3,4.6,65,0.00,CLR,SCT,0.00,0.0,WeatherDisplay:10.37,2013-02-02 11:54:00,
2013-02-02 05:59:00,26.4,16.2,30.09,West,270,3.3,4.0,65,0.00,CLR,SCT,0.00,0.0,WeatherDisplay:10.37,2013-02-02 11:59:00,
2013-02-02 06:04:00,26.4,16.2,30.09,NNE,22,2.6,3.5,65,0.00,CLR,SCT,0.00,0.0,WeatherDisplay:10.37,2013-02-02 12:04:00,
2013-02-02 06:09:00,26.2,15.7,30.12,North,0,2.9,4.7,64,0.00,CLR,SCT,0.00,0.0,WeatherDisplay:10.37,2013-02-02 12:09:00,
2013-02-02 06:15:00,26.2,15.3,30.12,North,353,3.0,8.0,63,0.00,CLR,SCT,0.00,0.0,WeatherDisplay:10.37,2013-02-02 12:15:00,
2013-02-02 06:20:00,26.2,15.3,30.12,SSW,202,3.3,5.8,63,0.00,CLR,SCT,0.00,0.0,WeatherDisplay:10.37,2013-02-02 12:20:00,
2013-02-02 06:25:00,26.1,15.2,30.12,NNE,22,3.6,5.8,63,0.00,CLR,SCT,0.00,0.0,WeatherDisplay:10.37,2013-02-02 12:25:00,
2013-02-02 06:30:00,26.1,15.2,30.12,North,0,3.8,5.8,63,0.00,CLR,SCT,0.00,0.0,WeatherDisplay:10.37,2013-02-02 12:30:00,
2013-02-02 06:35:00,26.1,15.5,30.12,NNE,22,3.6,4.6,64,0.00,CLR,SCT,0.00,0.0,WeatherDisplay:10.37,2013-02-02 12:35:00,
2013-02-02 06:40:00,25.9,15.4,30.12,WNW,292,2.6,2.6,64,0.00,CLR,SCT,0.00,0.0,WeatherDisplay:10.37,2013-02-02 12:40:00,
2013-02-02 06:45:00,25.9,15.7,30.12,North,0,4.7,5.8,65,0.00,CLR,SCT,0.00,0.0,WeatherDisplay:10.37,2013-02-02 12:45:00,
2013-02-02 06:50:00,25.7,15.6,30.12,North,0,4.0,4.0,65,0.00,CLR,SCT,0.00,0.0,WeatherDisplay:10.37,2013-02-02 12:50:00,
2013-02-02 06:55:00,25.5,15.4,30.12,NNW,338,3.3,5.8,65,0.00,CLR,SCT,0.00,0.0,WeatherDisplay:10.37,2013-02-02 12:55:00,
2013-02-02 07:00:00,25.3,15.2,30.12,NNW,338,2.6,4.6,65,0.00,CLR,SCT,0.00,0.0,WeatherDisplay:10.37,2013-02-02 13:00:00,
2013-02-02 07:05:00,25.3,15.2,30.12,NNE,22,2.6,3.5,65,0.00,OVC,SCT,0.00,0.0,WeatherDisplay:10.37,2013-02-02 13:05:00,
2013-02-02 07:10:00,25.2,14.7,30.12,ESE,112,3.3,3.5,64,0.00,OVC,SCT,0.00,0.0,WeatherDisplay:10.37,2013-02-02 13:10:00,
2013-02-02 07:15:00,25.0,14.2,30.12,NNW,338,4.3,8.1,63,0.00,OVC,SCT,0.00,0.0,WeatherDisplay:10.37,2013-02-02 13:15:00,
2013-02-02 07:20:00,25.0,14.2,30.12,NNW,338,2.6,4.9,63,0.00,OVC,SCT,0.00,0.0,WeatherDisplay:10.37,2013-02-02 13:20:00,
2013-02-02 07:25:00,24.8,14.3,30.12,SE,135,3.1,4.9,64,0.00,OVC,SCT,0.00,0.0,WeatherDisplay:10.37,2013-02-02 13:25:00,
2013-02-02 07:31:00,24.8,14.7,30.12,NNW,338,4.5,5.8,65,0.00,OVC,SCT,0.00,0.0,WeatherDisplay:10.37,2013-02-02 13:31:00,
2013-02-02 07:36:00,24.6,14.2,30.12,North,0,3.3,5.8,64,0.00,OVC,SCT,0.00,0.0,WeatherDisplay:10.37,2013-02-02 13:36:00,
2013-02-02 07:41:00,24.6,14.5,30.12,North,0,2.9,4.0,65,0.00,OVC,SCT,0.00,0.0,WeatherDisplay:10.37,2013-02-02 13:41:00,
2013-02-02 07:46:00,24.6,14.5,30.12,NNE,22,1.4,3.1,65,0.00,OVC,SCT,0.00,0.0,WeatherDisplay:10.37,2013-02-02 13:46:00,
2013-02-02 07:51:00,24.4,14.4,30.12,North,0,2.2,3.5,65,0.00,OVC,SCT,0.00,0.0,WeatherDisplay:10.37,2013-02-02 13:51:00,
2013-02-02 07:56:00,24.4,14.0,30.12,NNW,338,2.6,4.0,64,0.00,OVC,SCT,0.00,0.0,WeatherDisplay:10.37,2013-02-02 13:56:00,
2013-02-02 08:01:00,24.4,14.0,30.12,North,0,3.1,5.4,64,0.00,OVC,SCT,0.00,0.0,WeatherDisplay:10.37,2013-02-02 14:01:00,
2013-02-02 08:06:00,24.4,14.0,30.12,WSW,248,2.6,3.5,64,0.00,OVC,SCT,0.00,0.0,WeatherDisplay:10.37,2013-02-02 14:06:00,
2013-02-02 08:11:00,24.4,13.6,30.12,NNE,22,2.9,5.9,63,0.00,OVC,SCT,0.00,0.0,WeatherDisplay:10.37,2013-02-02 14:11:00,
2013-02-02 08:16:00,24.4,13.3,30.12,NNE,22,4.3,5.8,62,0.00,OVC,SCT,0.00,0.0,WeatherDisplay:10.37,2013-02-02 14:16:00,
2013-02-02 08:21:00,24.4,12.9,30.12,East,90,2.6,5.8,61,0.00,OVC,SCT,0.00,0.0,WeatherDisplay:10.37,2013-02-02 14:21:00,
2013-02-02 08:26:00,24.4,13.3,30.09,East,90,2.0,3.5,62,0.00,OVC,SCT,0.00,0.0,WeatherDisplay:10.37,2013-02-02 14:26:00,
2013-02-02 08:31:00,24.4,13.3,30.09,South,180,2.6,4.6,62,0.00,OVC,SCT,0.00,0.0,WeatherDisplay:10.37,2013-02-02 14:31:00,
2013-02-02 08:36:00,24.6,13.1,30.09,NNE,22,3.6,6.9,61,0.00,OVC,SCT,0.00,0.0,WeatherDisplay:10.37,2013-02-02 14:36:00,
2013-02-02 08:42:00,24.6,13.1,30.12,North,0,2.9,5.8,61,0.00,OVC,SCT,0.00,0.0,WeatherDisplay:10.37,2013-02-02 14:42:00,
2013-02-02 08:47:00,24.6,13.1,30.12,ESE,112,3.6,4.6,61,0.00,OVC,SCT,0.00,0.0,WeatherDisplay:10.37,2013-02-02 14:47:00,
2013-02-02 08:52:00,24.8,13.2,30.12,NNE,22,2.9,3.5,61,0.00,OVC,SCT,0.00,0.0,WeatherDisplay:10.37,2013-02-02 14:52:00,
2013-02-02 08:57:00,24.8,13.2,30.15,NNW,338,2.4,3.5,61,0.00,OVC,SCT,0.00,0.0,WeatherDisplay:10.37,2013-02-02 14:57:00,
2013-02-02 09:02:00,25.0,13.4,30.15,NNE,22,2.0,5.8,61,0.00,OVC,SCT,0.00,0.0,WeatherDisplay:10.37,2013-02-02 15:02:00,
2013-02-02 09:07:00,25.3,13.8,30.15,NNE,22,2.2,3.5,61,0.00,OVC,SCT,0.00,0.0,WeatherDisplay:10.37,2013-02-02 15:07:00,
2013-02-02 09:12:00,25.3,13.8,30.15,NNW,338,1.4,2.3,61,0.00,OVC,SCT,0.00,0.0,WeatherDisplay:10.37,2013-02-02 15:12:00,
2013-02-02 09:17:00,25.5,13.9,30.15,WSW,248,2.6,3.5,61,0.00,OVC,SCT,0.00,0.0,WeatherDisplay:10.37,2013-02-02 15:17:00,
2013-02-02 09:22:00,25.5,13.5,30.15,North,0,2.4,4.6,60,0.00,OVC,SCT,0.00,0.0,WeatherDisplay:10.37,2013-02-02 15:22:00,
2013-02-02 09:27:00,25.7,13.3,30.15,WNW,292,2.6,4.6,59,0.00,OVC,SCT,0.00,0.0,WeatherDisplay:10.37,2013-02-02 15:27:00,
2013-02-02 09:32:00,25.7,12.9,30.15,WNW,292,1.6,4.6,58,0.00,OVC,SCT,0.00,0.0,WeatherDisplay:10.37,2013-02-02 15:32:00,
2013-02-02 09:37:00,25.9,13.1,30.15,NNE,22,2.0,3.5,58,0.00,OVC,SCT,0.00,0.0,WeatherDisplay:10.37,2013-02-02 15:37:00,
2013-02-02 09:42:00,25.9,13.1,30.15,West,270,1.1,1.1,58,0.00,OVC,SCT,0.00,0.0,WeatherDisplay:10.37,2013-02-02 15:42:00,
2013-02-02 09:47:00,26.1,13.3,30.15,ENE,68,0.0,2.9,58,0.00,OVC,SCT,0.00,0.0,WeatherDisplay:10.37,2013-02-02 15:47:00,
2013-02-02 09:52:00,26.2,13.5,30.15,East,90,2.0,3.5,58,0.00,OVC,SCT,0.00,0.0,WeatherDisplay:10.37,2013-02-02 15:52:00,
2013-02-02 09:57:00,26.2,13.1,30.15,NNE,22,0.0,1.6,57,0.00,OVC,SCT,0.00,0.0,WeatherDisplay:10.37,2013-02-02 15:57:00,
2013-02-02 10:02:00,26.6,13.4,30.15,East,90,2.6,4.6,57,0.00,OVC,SCT,0.00,0.0,WeatherDisplay:10.37,2013-02-02 16:02:00,
2013-02-02 10:07:00,26.6,13.4,30.15,ESE,112,0.0,1.1,57,0.00,OVC,SCT,0.00,0.0,WeatherDisplay:10.37,2013-02-02 16:07:00,
2013-02-02 10:12:00,26.8,13.6,30.15,North,0,1.4,2.6,57,0.00,OVC,SCT,0.00,0.0,WeatherDisplay:10.37,2013-02-02 16:12:00,
2013-02-02 10:17:00,27.0,13.7,30.15,NNW,338,1.1,2.3,57,0.00,OVC,SCT,0.00,0.0,WeatherDisplay:10.37,2013-02-02 16:17:00,
2013-02-02 10:22:00,27.1,13.9,30.15,WNW,292,2.2,2.3,57,0.00,OVC,SCT,0.00,0.0,WeatherDisplay:10.37,2013-02-02 16:22:00,
2013-02-02 10:28:00,27.3,13.7,30.15,NNW,338,1.4,3.5,56,0.00,OVC,SCT,0.00,0.0,WeatherDisplay:10.37,2013-02-02 16:28:00,
2013-02-02 10:33:00,27.5,13.0,30.15,North,0,1.6,2.3,54,0.00,OVC,SCT,0.00,0.0,WeatherDisplay:10.37,2013-02-02 16:33:00,
2013-02-02 10:38:00,27.5,12.6,30.15,NNE,22,2.0,2.3,53,0.00,OVC,SCT,0.00,0.0,WeatherDisplay:10.37,2013-02-02 16:38:00,
2013-02-02 10:43:00,27.5,13.0,30.15,NNW,338,0.9,2.0,54,0.00,OVC,SCT,0.00,0.0,WeatherDisplay:10.37,2013-02-02 16:43:00,
2013-02-02 10:48:00,27.7,13.2,30.15,NW,315,1.1,2.3,54,0.00,OVC,SCT,0.00,0.0,WeatherDisplay:10.37,2013-02-02 16:48:00,
2013-02-02 10:53:00,27.5,13.0,30.15,NE,45,1.6,2.3,54,0.00,OVC,SCT,0.00,0.0,WeatherDisplay:10.37,2013-02-02 16:53:00,
2013-02-02 10:58:00,27.7,13.2,30.15,NNE,22,1.4,1.4,54,0.00,OVC,SCT,0.00,100.0,WeatherDisplay:10.37,2013-02-02 16:58:00,
2013-02-02 11:03:00,27.9,13.3,30.15,NNW,338,2.2,3.5,54,0.00,OVC,SCT,0.00,0.0,WeatherDisplay:10.37,2013-02-02 17:03:00,
2013-02-02 11:08:00,28.2,13.3,30.15,WSW,248,2.0,3.5,53,0.00,OVC,SCT,0.00,100.0,WeatherDisplay:10.37,2013-02-02 17:08:00,
2013-02-02 11:13:00,28.6,13.6,30.15,North,0,2.4,3.6,53,0.00,OVC,SCT,0.00,0.0,WeatherDisplay:10.37,2013-02-02 17:13:00,
2013-02-02 11:18:00,28.8,13.3,30.15,ESE,112,0.0,2.3,52,0.00,OVC,SCT,0.00,0.0,WeatherDisplay:10.37,2013-02-02 17:18:00,
2013-02-02 11:23:00,28.9,13.1,30.15,WSW,248,2.2,2.3,51,0.00,OVC,SCT,0.00,0.0,WeatherDisplay:10.37,2013-02-02 17:23:00,
2013-02-02 11:28:00,28.8,12.4,30.15,WNW,292,0.0,2.3,50,0.00,OVC,SCT,0.00,0.0,WeatherDisplay:10.37,2013-02-02 17:28:00,
2013-02-02 11:33:00,28.6,12.3,30.15,WSW,248,0.0,0.0,50,0.00,OVC,SCT,0.00,0.0,WeatherDisplay:10.37,2013-02-02 17:33:00,
2013-02-02 11:38:00,27.9,11.6,30.15,West,270,0.0,1.1,50,0.00,OVC,SCT,0.00,0.0,WeatherDisplay:10.37,2013-02-02 17:38:00,
2013-02-02 11:43:00,27.5,11.3,30.15,SW,225,1.4,2.3,50,0.00,OVC,SCT,0.00,0.0,WeatherDisplay:10.37,2013-02-02 17:43:00,
2013-02-02 11:48:00,27.7,11.9,30.15,ENE,68,0.0,1.4,51,0.00,OVC,SCT,0.00,0.0,WeatherDisplay:10.37,2013-02-02 17:48:00,
2013-02-02 11:53:00,27.5,12.6,30.15,WSW,248,2.4,2.4,53,0.00,OVC,SCT,0.00,0.0,WeatherDisplay:10.37,2013-02-02 17:53:00,
2013-02-02 11:58:00,27.0,12.5,30.15,SSW,202,2.9,4.6,54,0.00,OVC,SCT,0.00,0.0,WeatherDisplay:10.37,2013-02-02 17:58:00,
2013-02-02 12:03:00,27.0,12.9,30.15,WSW,248,1.1,1.1,55,0.00,OVC,SCT,0.00,0.0,WeatherDisplay:10.37,2013-02-02 18:03:00,
2013-02-02 12:08:00,27.3,13.3,30.15,West,270,1.1,2.3,55,0.00,OVC,SCT,0.00,0.0,WeatherDisplay:10.37,2013-02-02 18:08:00,
2013-02-02 12:13:00,27.3,12.8,30.15,SSW,202,1.4,2.0,54,0.00,OVC,SCT,0.00,100.0,WeatherDisplay:10.37,2013-02-02 18:13:00,
2013-02-02 12:18:00,27.9,13.8,30.15,SSW,202,0.0,0.0,55,0.00,OVC,SCT,0.00,0.0,WeatherDisplay:10.37,2013-02-02 18:18:00,
2013-02-02 12:24:00,27.9,13.3,30.12,SW,225,2.2,3.5,54,0.00,OVC,SCT,0.00,0.0,WeatherDisplay:10.37,2013-02-02 18:24:00,
2013-02-02 12:29:00,27.7,12.8,30.12,WSW,248,1.1,1.6,53,0.00,OVC,SCT,0.00,0.0,WeatherDisplay:10.37,2013-02-02 18:29:00,
2013-02-02 12:34:00,27.9,13.3,30.12,SSE,158,2.2,3.3,54,0.00,OVC,SCT,0.00,0.0,WeatherDisplay:10.37,2013-02-02 18:34:00,
2013-02-02 12:39:00,27.7,13.2,30.12,West,270,2.6,2.6,54,0.00,OVC,SCT,0.00,0.0,WeatherDisplay:10.37,2013-02-02 18:39:00,
2013-02-02 12:44:00,28.0,13.9,30.12,SSE,158,0.9,2.3,55,0.00,OVC,SCT,0.00,0.0,WeatherDisplay:10.37,2013-02-02 18:44:00,
2013-02-02 12:50:00,28.0,15.9,30.12,WSW,248,2.9,4.6,60,0.00,OVC,SCT,0.00,0.0,WeatherDisplay:10.37,2013-02-02 18:50:00,
2013-02-02 12:55:00,27.5,15.8,30.12,South,180,3.1,3.5,61,0.00,OVC,SCT,0.00,0.0,WeatherDisplay:10.37,2013-02-02 18:55:00,
2013-02-02 13:00:00,27.7,16.3,30.12,SSW,202,2.9,3.3,62,0.00,OVC,SCT,0.00,0.0,WeatherDisplay:10.37,2013-02-02 19:00:00,
2013-02-02 13:05:00,27.5,15.8,30.12,SSW,202,2.6,3.5,61,0.00,OVC,SCT,0.00,0.0,WeatherDisplay:10.37,2013-02-02 19:05:00,
2013-02-02 13:10:00,27.5,16.2,30.12,SSW,202,3.6,4.6,62,0.00,OVC,SCT,0.00,0.0,WeatherDisplay:10.37,2013-02-02 19:10:00,
2013-02-02 13:15:00,27.9,16.9,30.12,SSE,158,3.6,5.9,63,0.00,OVC,SCT,0.00,0.0,WeatherDisplay:10.37,2013-02-02 19:15:00,
2013-02-02 13:20:00,28.0,17.1,30.12,SSW,202,4.0,5.8,63,0.00,OVC,SCT,0.00,0.0,WeatherDisplay:10.37,2013-02-02 19:20:00,
2013-02-02 13:25:00,28.4,17.4,30.09,WSW,248,4.0,5.8,63,0.00,OVC,SCT,0.00,0.0,WeatherDisplay:10.37,2013-02-02 19:25:00,
2013-02-02 13:30:00,28.4,17.8,30.09,WSW,248,3.6,5.8,64,0.00,OVC,SCT,0.00,0.0,WeatherDisplay:10.37,2013-02-02 19:30:00,
2013-02-02 13:35:00,28.2,18.0,30.09,WSW,248,6.7,8.7,65,0.00,OVC,SCT,0.00,0.0,WeatherDisplay:10.37,2013-02-02 19:35:00,
2013-02-02 13:40:00,28.4,19.2,30.09,WSW,248,4.9,8.1,68,0.00,OVC,SCT,0.00,0.0,WeatherDisplay:10.37,2013-02-02 19:40:00,
2013-02-02 13:45:00,28.6,18.3,30.09,SW,225,4.7,8.1,65,0.00,OVC,SCT,0.00,0.0,WeatherDisplay:10.37,2013-02-02 19:45:00,
2013-02-02 13:51:00,29.3,19.0,30.09,SSW,202,5.4,8.5,65,0.00,OVC,SCT,0.00,0.0,WeatherDisplay:10.37,2013-02-02 19:51:00,
2013-02-02 13:56:00,29.3,17.9,30.09,WSW,248,4.5,5.8,62,0.00,OVC,SCT,0.00,0.0,WeatherDisplay:10.37,2013-02-02 19:56:00,
2013-02-02 14:01:00,29.3,18.3,30.09,SSW,202,4.7,5.8,63,0.00,OVC,SCT,0.00,0.0,WeatherDisplay:10.37,2013-02-02 20:01:00,
2013-02-02 14:06:00,29.5,17.7,30.09,SE,135,4.7,6.2,61,0.00,OVC,SCT,0.00,0.0,WeatherDisplay:10.37,2013-02-02 20:06:00,
2013-02-02 14:11:00,29.5,18.1,30.09,SW,225,4.3,5.8,62,0.00,OVC,SCT,0.00,0.0,WeatherDisplay:10.37,2013-02-02 20:11:00,
2013-02-02 14:16:00,29.7,18.2,30.09,WSW,248,4.5,5.8,62,0.00,OVC,SCT,0.00,0.0,WeatherDisplay:10.37,2013-02-02 20:16:00,
2013-02-02 14:21:00,30.2,19.8,30.09,WSW,248,4.3,5.9,65,0.00,OVC,SCT,0.00,0.0,WeatherDisplay:10.37,2013-02-02 20:21:00,
2013-02-02 14:26:00,30.2,18.7,30.06,SSW,202,3.8,4.6,62,0.00,OVC,SCT,0.00,0.0,WeatherDisplay:10.37,2013-02-02 20:26:00,
2013-02-02 14:31:00,30.6,19.8,30.06,WSW,248,3.1,5.6,64,0.00,OVC,SCT,0.00,0.0,WeatherDisplay:10.37,2013-02-02 20:31:00,
2013-02-02 14:36:00,30.6,19.1,30.06,SSW,202,3.3,4.6,62,0.00,OVC,SCT,0.00,0.0,WeatherDisplay:10.37,2013-02-02 20:36:00,
2013-02-02 14:41:00,30.9,19.8,30.06,SW,225,3.1,4.6,63,0.00,OVC,SCT,0.00,0.0,WeatherDisplay:10.37,2013-02-02 20:41:00,
2013-02-02 14:46:00,31.5,21.0,30.06,SSE,158,3.3,5.8,65,0.00,OVC,SCT,0.00,0.0,WeatherDisplay:10.37,2013-02-02 20:46:00,
2013-02-02 14:51:00,32.2,20.2,30.06,SSW,202,5.6,5.8,61,0.00,OVC,SCT,0.00,0.0,WeatherDisplay:10.37,2013-02-02 20:51:00,
2013-02-02 14:56:00,32.7,20.7,30.06,SSW,202,3.8,5.8,61,0.00,OVC,SCT,0.00,100.0,WeatherDisplay:10.37,2013-02-02 20:56:00,
2013-02-02 15:01:00,33.1,20.3,30.06,SW,225,4.5,8.1,59,0.00,OVC,SCT,0.00,0.0,WeatherDisplay:10.37,2013-02-02 21:01:00,
2013-02-02 15:06:00,33.4,20.2,30.06,South,180,4.7,5.8,58,0.00,OVC,SCT,0.00,100.0,WeatherDisplay:10.37,2013-02-02 21:06:00,
2013-02-02 15:12:00,33.4,21.4,30.06,WSW,248,5.9,8.1,61,0.00,OVC,SCT,0.00,0.0,WeatherDisplay:10.37,2013-02-02 21:12:00,
2013-02-02 15:17:00,34.0,21.9,30.06,SSW,202,4.0,5.8,61,0.00,OVC,SCT,0.00,0.0,WeatherDisplay:10.37,2013-02-02 21:17:00,
2013-02-02 15:22:00,34.2,21.7,30.06,SW,225,3.8,4.6,60,0.00,OVC,SCT,0.00,0.0,WeatherDisplay:10.37,2013-02-02 21:22:00,
2013-02-02 15:27:00,33.8,21.4,30.06,SSW,202,3.8,4.7,60,0.00,OVC,SCT,0.00,0.0,WeatherDisplay:10.37,2013-02-02 21:27:00,
2013-02-02 15:32:00,34.0,21.9,30.06,SSW,202,4.3,5.9,61,0.00,OVC,SCT,0.00,0.0,WeatherDisplay:10.37,2013-02-02 21:32:00,
2013-02-02 15:37:00,34.3,21.9,30.06,SSW,202,4.9,6.0,60,0.00,OVC,SCT,0.00,0.0,WeatherDisplay:10.37,2013-02-02 21:37:00,
2013-02-02 15:42:00,34.5,21.7,30.03,South,180,5.6,8.1,59,0.00,OVC,SCT,0.00,0.0,WeatherDisplay:10.37,2013-02-02 21:42:00,
2013-02-02 15:48:00,34.7,21.8,30.03,SSE,158,3.8,5.8,59,0.00,OVC,SCT,0.00,0.0,WeatherDisplay:10.37,2013-02-02 21:48:00,
2013-02-02 15:53:00,34.9,22.0,30.00,SSW,202,5.6,8.1,59,0.00,OVC,SCT,0.00,0.0,WeatherDisplay:10.37,2013-02-02 21:53:00,
2013-02-02 15:58:00,34.5,21.7,30.00,ENE,68,4.9,5.8,59,0.00,OVC,SCT,0.00,0.0,WeatherDisplay:10.37,2013-02-02 21:58:00,
2013-02-02 16:03:00,34.0,21.5,30.00,SSW,202,4.9,6.0,60,0.00,OVC,SCT,0.00,0.0,WeatherDisplay:10.37,2013-02-02 22:03:00,
2013-02-02 16:08:00,33.8,21.4,30.00,South,180,6.0,8.1,60,0.00,OVC,SCT,0.00,0.0,WeatherDisplay:10.37,2013-02-02 22:08:00,
2013-02-02 16:13:00,33.8,21.8,30.00,ESE,112,3.8,6.2,61,0.00,OVC,SCT,0.00,0.0,WeatherDisplay:10.37,2013-02-02 22:13:00,
2013-02-02 16:18:00,33.8,21.8,30.00,WSW,248,4.0,5.8,61,0.00,OVC,SCT,0.00,0.0,WeatherDisplay:10.37,2013-02-02 22:18:00,
2013-02-02 16:23:00,33.8,22.1,30.00,South,180,5.6,8.5,62,0.00,OVC,SCT,0.00,0.0,WeatherDisplay:10.37,2013-02-02 22:23:00,
2013-02-02 16:28:00,33.8,22.1,30.00,South,180,4.9,7.4,62,0.00,OVC,SCT,0.00,0.0,WeatherDisplay:10.37,2013-02-02 22:28:00,
2013-02-02 16:33:00,34.0,22.7,30.00,SW,225,4.0,5.6,63,0.00,OVC,SCT,0.00,0.0,WeatherDisplay:10.37,2013-02-02 22:33:00,
2013-02-02 16:39:00,34.3,23.0,30.03,SSW,202,4.0,5.8,63,0.00,OVC,SCT,0.00,0.0,WeatherDisplay:10.37,2013-02-02 22:39:00,
2013-02-02 16:44:00,34.3,22.7,30.03,SSW,202,3.8,6.9,62,0.00,OVC,SCT,0.00,0.0,WeatherDisplay:10.37,2013-02-02 22:44:00,
2013-02-02 16:49:00,34.2,22.5,30.03,SSW,202,4.3,5.8,62,0.00,OVC,SCT,0.00,0.0,WeatherDisplay:10.37,2013-02-02 22:49:00,
2013-02-02 16:54:00,34.0,22.3,30.00,SSE,158,4.3,5.8,62,0.00,OVC,SCT,0.00,0.0,WeatherDisplay:10.37,2013-02-02 22:54:00,
2013-02-02 16:59:00,33.8,22.1,30.00,SSE,158,4.9,6.9,62,0.00,OVC,SCT,0.00,0.0,WeatherDisplay:10.37,2013-02-02 22:59:00,
2013-02-02 17:04:00,33.8,22.9,30.00,South,180,3.6,4.6,64,0.00,OVC,SCT,0.00,0.0,WeatherDisplay:10.37,2013-02-02 23:04:00,
2013-02-02 17:09:00,33.6,23.5,30.00,SSE,158,2.2,2.6,66,0.00,OVC,SCT,0.00,0.0,WeatherDisplay:10.37,2013-02-02 23:09:00,
2013-02-02 17:14:00,33.3,23.1,30.00,SSE,158,1.4,3.5,66,0.00,OVC,SCT,0.00,0.0,WeatherDisplay:10.37,2013-02-02 23:14:00,
2013-02-02 17:19:00,33.3,23.1,30.00,ESE,112,3.6,4.6,66,0.00,OVC,SCT,0.00,0.0,WeatherDisplay:10.37,2013-02-02 23:19:00,
2013-02-02 17:24:00,33.3,23.5,30.00,SSE,158,2.0,4.6,67,0.00,OVC,SCT,0.00,0.0,WeatherDisplay:10.37,2013-02-02 23:24:00,
2013-02-02 17:30:00,33.3,23.5,30.00,ESE,112,2.9,3.5,67,0.00,OVC,SCT,0.00,0.0,WeatherDisplay:10.37,2013-02-02 23:30:00,
2013-02-02 17:35:00,33.1,23.3,30.00,ESE,112,2.0,3.5,67,0.00,OVC,SCT,0.00,0.0,WeatherDisplay:10.37,2013-02-02 23:35:00,
2013-02-02 17:40:00,33.1,23.3,29.97,SSE,158,1.6,3.5,67,0.00,OVC,SCT,0.00,0.0,WeatherDisplay:10.37,2013-02-02 23:40:00,
2013-02-02 17:45:00,33.1,22.9,29.97,ESE,112,2.2,3.5,66,0.00,OVC,SCT,0.00,0.0,WeatherDisplay:10.37,2013-02-02 23:45:00,
2013-02-02 17:50:00,33.1,23.3,29.97,SE,135,1.6,2.3,67,0.00,OVC,SCT,0.00,0.0,WeatherDisplay:10.37,2013-02-02 23:50:00,
2013-02-02 17:55:00,33.1,23.3,30.00,ESE,112,2.2,2.4,67,0.00,OVC,SCT,0.00,0.0,WeatherDisplay:10.37,2013-02-02 23:55:00,
2013-02-02 18:00:00,32.9,23.1,30.00,SSE,158,2.0,2.9,67,0.00,CLR,SCT,0.00,0.0,WeatherDisplay:10.37,2013-02-03 00:00:00,
2013-02-02 18:06:00,32.9,23.5,30.00,ESE,112,0.0,2.3,68,0.00,CLR,SCT,0.00,0.0,WeatherDisplay:10.37,2013-02-03 00:06:00,
2013-02-02 18:11:00,32.9,23.5,30.00,ENE,68,0.0,0.0,68,0.00,CLR,SCT,0.00,0.0,WeatherDisplay:10.37,2013-02-03 00:11:00,
2013-02-02 18:16:00,32.9,23.5,30.00,ESE,112,1.4,2.6,68,0.00,CLR,SCT,0.00,0.0,WeatherDisplay:10.37,2013-02-03 00:16:00,
2013-02-02 18:21:00,32.9,24.9,30.00,SSW,202,1.4,2.3,72,0.00,CLR,SCT,0.00,0.0,WeatherDisplay:10.37,2013-02-03 00:21:00,
2013-02-02 18:26:00,32.9,24.9,30.00,NNE,22,0.9,2.3,72,0.00,CLR,SCT,0.00,0.0,WeatherDisplay:10.37,2013-02-03 00:26:00,
2013-02-02 18:31:00,32.9,24.9,30.00,WNW,292,0.0,0.0,72,0.00,CLR,SCT,0.00,0.0,WeatherDisplay:10.37,2013-02-03 00:31:00,
2013-02-02 18:36:00,33.1,26.0,30.00,SSW,202,1.4,3.5,75,0.00,CLR,SCT,0.00,0.0,WeatherDisplay:10.37,2013-02-03 00:36:00,
2013-02-02 18:41:00,33.1,25.7,30.03,ENE,68,1.1,3.5,74,0.00,CLR,SCT,0.00,0.0,WeatherDisplay:10.37,2013-02-03 00:41:00,
2013-02-02 18:46:00,33.1,25.7,30.03,ENE,68,0.0,1.1,74,0.00,CLR,SCT,0.00,0.0,WeatherDisplay:10.37,2013-02-03 00:46:00,
2013-02-02 18:51:00,33.1,25.4,30.03,ESE,112,0.9,2.4,73,0.00,CLR,SCT,0.00,0.0,WeatherDisplay:10.37,2013-02-03 00:51:00,
2013-02-02 18:56:00,33.1,25.4,30.03,ESE,112,1.1,1.4,73,0.00,CLR,SCT,0.00,0.0,WeatherDisplay:10.37,2013-02-03 00:56:00,
2013-02-02 19:01:00,33.1,26.0,30.03,ESE,112,0.0,0.0,75,0.00,CLR,SCT,0.00,0.0,WeatherDisplay:10.37,2013-02-03 01:01:00,
2013-02-02 19:06:00,33.1,27.3,30.03,WSW,248,2.0,2.6,79,0.00,CLR,SCT,0.00,0.0,WeatherDisplay:10.37,2013-02-03 01:06:00,
2013-02-02 19:11:00,33.1,28.5,30.03,West,270,2.0,2.4,83,0.00,CLR,SCT,0.00,0.0,WeatherDisplay:10.37,2013-02-03 01:11:00,
2013-02-02 19:16:00,33.1,28.5,30.03,West,270,2.4,3.5,83,0.00,CLR,SCT,0.00,0.0,WeatherDisplay:10.37,2013-02-03 01:16:00,
2013-02-02 19:22:00,33.1,28.2,30.03,West,270,2.2,3.5,82,0.00,CLR,SCT,0.00,0.0,WeatherDisplay:10.37,2013-02-03 01:22:00,
2013-02-02 19:27:00,33.1,28.2,30.03,West,270,2.2,2.4,82,0.00,CLR,SCT,0.00,0.0,WeatherDisplay:10.37,2013-02-03 01:27:00,
2013-02-02 19:32:00,33.4,28.5,30.03,WNW,292,2.2,2.9,82,0.00,CLR,SCT,0.00,0.0,WeatherDisplay:10.37,2013-02-03 01:32:00,
2013-02-02 19:37:00,33.8,28.9,30.03,WNW,292,2.4,3.5,82,0.00,CLR,SCT,0.00,0.0,WeatherDisplay:10.37,2013-02-03 01:37:00,
2013-02-02 19:42:00,34.0,28.8,30.06,NNW,338,2.6,3.5,81,0.00,CLR,SCT,0.00,0.0,WeatherDisplay:10.37,2013-02-03 01:42:00,
2013-02-02 19:47:00,34.2,28.3,30.06,WNW,292,2.4,2.4,79,0.00,CLR,SCT,0.00,0.0,WeatherDisplay:10.37,2013-02-03 01:47:00,
2013-02-02 19:52:00,34.0,27.5,30.06,WNW,292,2.4,3.5,77,0.00,CLR,SCT,0.00,0.0,WeatherDisplay:10.37,2013-02-03 01:52:00,
2013-02-02 19:57:00,34.0,27.2,30.06,NNW,338,1.4,3.5,76,0.00,CLR,SCT,0.00,0.0,WeatherDisplay:10.37,2013-02-03 01:57:00,
2013-02-02 20:02:00,34.0,27.2,30.06,WNW,292,1.4,2.6,76,0.00,CLR,SCT,0.00,0.0,WeatherDisplay:10.37,2013-02-03 02:02:00,
2013-02-02 20:07:00,34.0,27.2,30.06,NNW,338,2.0,2.3,76,0.00,CLR,SCT,0.00,0.0,WeatherDisplay:10.37,2013-02-03 02:07:00,
2013-02-02 20:12:00,34.2,27.7,30.06,WNW,292,1.6,2.4,77,0.00,CLR,SCT,0.00,0.0,WeatherDisplay:10.37,2013-02-03 02:12:00,
2013-02-02 20:17:00,34.3,27.6,30.06,West,270,0.9,2.3,76,0.00,CLR,SCT,0.00,0.0,WeatherDisplay:10.37,2013-02-03 02:17:00,
2013-02-02 20:22:00,34.2,27.1,30.06,NNW,338,2.0,3.5,75,0.00,CLR,SCT,0.00,0.0,WeatherDisplay:10.37,2013-02-03 02:22:00,
2013-02-02 20:28:00,34.3,27.2,30.06,NW,315,1.6,2.6,75,0.00,CLR,SCT,0.00,0.0,WeatherDisplay:10.37,2013-02-03 02:28:00,
2013-02-02 20:33:00,34.3,27.2,30.06,WNW,292,2.0,2.9,75,0.00,CLR,SCT,0.00,0.0,WeatherDisplay:10.37,2013-02-03 02:33:00,
2013-02-02 20:38:00,34.5,27.4,30.06,West,270,2.4,3.6,75,0.00,CLR,SCT,0.00,0.0,WeatherDisplay:10.37,2013-02-03 02:38:00,
2013-02-02 20:43:00,35.2,27.4,30.06,NNE,22,2.4,5.8,73,0.00,CLR,SCT,0.00,0.0,WeatherDisplay:10.37,2013-02-03 02:43:00,
2013-02-02 20:48:00,35.6,26.8,30.06,NNW,338,4.7,4.7,70,0.00,CLR,SCT,0.00,0.0,WeatherDisplay:10.37,2013-02-03 02:48:00,
2013-02-02 20:53:00,35.8,26.2,30.06,North,0,3.1,4.6,68,0.00,CLR,SCT,0.00,0.0,WeatherDisplay:10.37,2013-02-03 02:53:00,
2013-02-02 20:58:00,35.8,25.5,30.06,NNW,338,4.9,6.9,66,0.00,CLR,SCT,0.00,0.0,WeatherDisplay:10.37,2013-02-03 02:58:00,
2013-02-02 21:03:00,36.1,25.5,30.06,North,0,3.6,5.8,65,0.00,CLR,SCT,0.00,0.0,WeatherDisplay:10.37,2013-02-03 03:03:00,
2013-02-02 21:08:00,36.7,24.5,30.06,West,270,5.4,6.9,61,0.00,CLR,SCT,0.00,0.0,WeatherDisplay:10.37,2013-02-03 03:08:00,
2013-02-02 21:13:00,36.9,23.4,30.06,NNW,338,5.6,8.1,58,0.00,CLR,SCT,0.00,0.0,WeatherDisplay:10.37,2013-02-03 03:13:00,
2013-02-02 21:18:00,36.9,23.0,30.06,WSW,248,4.9,5.8,57,0.00,CLR,SCT,0.00,0.0,WeatherDisplay:10.37,2013-02-03 03:18:00,
2013-02-02 21:23:00,36.7,22.9,30.06,WNW,292,2.6,5.8,57,0.00,CLR,SCT,0.00,0.0,WeatherDisplay:10.37,2013-02-03 03:23:00,
2013-02-02 21:28:00,36.9,23.0,30.06,West,270,4.0,5.8,57,0.00,CLR,SCT,0.00,0.0,WeatherDisplay:10.37,2013-02-03 03:28:00,
2013-02-02 21:33:00,37.0,22.8,30.06,WNW,292,5.6,7.4,56,0.00,CLR,SCT,0.00,0.0,WeatherDisplay:10.37,2013-02-03 03:33:00,
2013-02-02 21:39:00,37.4,22.7,30.06,WNW,292,5.4,6.9,55,0.00,CLR,SCT,0.00,0.0,WeatherDisplay:10.37,2013-02-03 03:39:00,
2013-02-02 21:44:00,37.4,22.3,30.06,NNW,338,4.5,6.4,54,0.00,CLR,SCT,0.00,0.0,WeatherDisplay:10.37,2013-02-03 03:44:00,
2013-02-02 21:49:00,37.6,22.4,30.06,North,0,4.5,6.0,54,0.00,CLR,SCT,0.00,0.0,WeatherDisplay:10.37,2013-02-03 03:49:00,
2013-02-02 21:54:00,37.6,22.0,30.06,NNW,338,4.9,7.1,53,0.00,CLR,SCT,0.00,0.0,WeatherDisplay:10.37,2013-02-03 03:54:00,
2013-02-02 21:59:00,37.6,22.0,30.06,NNW,338,4.5,6.9,53,0.00,CLR,SCT,0.00,0.0,WeatherDisplay:10.37,2013-02-03 03:59:00,
2013-02-02 22:04:00,37.6,21.5,30.06,WNW,292,4.5,7.4,52,0.00,CLR,SCT,0.00,0.0,WeatherDisplay:10.37,2013-02-03 04:04:00,
2013-02-02 22:10:00,37.6,21.5,30.06,WNW,292,5.4,10.4,52,0.00,CLR,SCT,0.00,0.0,WeatherDisplay:10.37,2013-02-03 04:10:00,
2013-02-02 22:15:00,37.6,21.5,30.06,NNW,338,5.9,9.2,52,0.00,CLR,SCT,0.00,0.0,WeatherDisplay:10.37,2013-02-03 04:15:00,
2013-02-02 22:20:00,37.6,21.5,30.06,NNW,338,3.8,4.6,52,0.00,CLR,SCT,0.00,0.0,WeatherDisplay:10.37,2013-02-03 04:20:00,
2013-02-02 22:25:00,37.4,21.4,30.06,NNW,338,3.6,5.8,52,0.00,CLR,SCT,0.00,0.0,WeatherDisplay:10.37,2013-02-03 04:25:00,
2013-02-02 22:30:00,37.2,21.6,30.06,North,0,3.8,4.6,53,0.00,CLR,SCT,0.00,0.0,WeatherDisplay:10.37,2013-02-03 04:30:00,
2013-02-02 22:35:00,36.9,21.7,30.06,WNW,292,4.5,5.9,54,0.00,CLR,SCT,0.00,0.0,WeatherDisplay:10.37,2013-02-03 04:35:00,
2013-02-02 22:40:00,37.0,22.4,30.06,West,270,5.6,11.5,55,0.00,CLR,SCT,0.00,0.0,WeatherDisplay:10.37,2013-02-03 04:40:00,
2013-02-02 22:45:00,36.9,22.2,30.06,West,270,3.3,5.8,55,0.00,CLR,SCT,0.00,0.0,WeatherDisplay:10.37,2013-02-03 04:45:00,
2013-02-02 22:50:00,36.5,22.3,30.06,NNW,338,4.9,8.1,56,0.00,CLR,SCT,0.00,0.0,WeatherDisplay:10.37,2013-02-03 04:50:00,
2013-02-02 22:55:00,36.5,22.3,30.06,WNW,292,5.4,5.8,56,0.00,CLR,SCT,0.00,0.0,WeatherDisplay:10.37,2013-02-03 04:55:00,
2013-02-02 23:00:00,36.5,21.8,30.06,NNW,338,3.8,5.8,55,0.00,CLR,SCT,0.00,0.0,WeatherDisplay:10.37,2013-02-03 05:00:00,
2013-02-02 23:01:00,36.5,21.8,30.06,NNW,338,4.0,6.0,55,0.00,CLR,SCT,0.00,0.0,WeatherDisplay:10.37,2013-02-03 05:01:00,
2013-02-02 23:04:00,36.5,21.8,30.06,NNW,338,6.9,9.2,55,0.00,CLR,SCT,0.00,0.0,WeatherDisplay:10.37,2013-02-03 05:04:00,
2013-02-02 23:09:00,36.7,21.6,30.06,North,0,5.6,8.1,54,0.00,CLR,SCT,0.00,0.0,WeatherDisplay:10.37,2013-02-03 05:09:00,
2013-02-02 23:14:00,36.7,21.1,30.06,NW,315,6.4,8.7,53,0.00,CLR,SCT,0.00,0.0,WeatherDisplay:10.37,2013-02-03 05:14:00,
2013-02-02 23:19:00,36.7,21.1,30.06,NNW,338,8.1,11.5,53,0.00,CLR,SCT,0.00,0.0,WeatherDisplay:10.37,2013-02-03 05:19:00,
2013-02-02 23:24:00,36.9,20.9,30.06,WNW,292,6.9,10.5,52,0.00,CLR,SCT,0.00,0.0,WeatherDisplay:10.37,2013-02-03 05:24:00,
2013-02-02 23:29:00,36.9,20.4,30.06,NNE,22,9.0,10.4,51,0.00,CLR,SCT,0.00,0.0,WeatherDisplay:10.37,2013-02-03 05:29:00,
2013-02-02 23:34:00,36.9,20.4,30.06,West,270,6.2,10.4,51,0.00,CLR,SCT,0.00,0.0,WeatherDisplay:10.37,2013-02-03 05:34:00,
2013-02-02 23:39:00,36.7,20.2,30.09,WSW,248,6.9,13.8,51,0.00,CLR,SCT,0.00,0.0,WeatherDisplay:10.37,2013-02-03 05:39:00,
2013-02-02 23:44:00,36.5,19.6,30.09,NW,315,7.4,12.7,50,0.00,CLR,SCT,0.00,0.0,WeatherDisplay:10.37,2013-02-03 05:44:00,
2013-02-02 23:49:00,36.3,19.4,30.09,SSW,202,6.2,8.1,50,0.00,CLR,SCT,0.00,0.0,WeatherDisplay:10.37,2013-02-03 05:49:00,
2013-02-02 23:55:00,36.0,19.6,30.09,North,0,6.0,8.1,51,0.00,CLR,SCT,0.00,0.0,WeatherDisplay:10.37,2013-02-03 05:55:00,